www.pogodaiklimat.ru

Архив погоды в Иркутске (Иркутская область, Россия)

Время
(UTC), дата
09 16.06
12 16.06
15 16.06
18 16.06
21 16.06
00 17.06
03 17.06
06 17.06
09 17.06
12 17.06
15 17.06
18 17.06
21 17.06
00 18.06
03 18.06
06 18.06
09 18.06
12 18.06
15 18.06
18 18.06
21 18.06
00 19.06
03 19.06
06 19.06
09 19.06
12 19.06
15 19.06
18 19.06
21 19.06
00 20.06
03 20.06
06 20.06
09 20.06
12 20.06
15 20.06
18 20.06
21 20.06
00 21.06
03 21.06
06 21.06
09 21.06
12 21.06
15 21.06
18 21.06
21 21.06
00 22.06
03 22.06
06 22.06
09 22.06
12 22.06
15 22.06
18 22.06
21 22.06
00 23.06
03 23.06
06 23.06
Ветер
(напр.,м/с)
Видим. Явления Облачность Т
(С)
Тd
(С)
f
(%)
Тe
(С)
Тes
(С)
Комфортность P
(гПа)
Po
(гПа)
Тmin
(С)
Tmax
(С)
R
(мм)
R24
(мм)
S
(см)
З 1 20 км ясно +30.1 +13.3 36 +32 +41 жарко 1000.0 949.1
Ю 1 20 км ясно +26.4 +13.5 45 +28 +29 жарко 999.7 948.2 +30.3
ЮВ 3 19 км 4/0
[Ac trans Ci fib]
+17.0 +9.6 62 +17 +17 тепло 1002.9 949.5
ЮВ 2 20 км 8/0
[Ac trans Ci fib]
+13.8 +7.0 64 +13 +13 тепло 1003.9 949.8
ЮВ 2 20 км слаб. ливневой дождь 10/8 600 м
[Cb cap Ci fib]
+12.6 +6.8 68 +12 +12 по сезону 1004.1 949.9
ЮВ 2 50 км {ливн. дождь} 8/3
[Cb cap Ac trans Ci fib]
+16.2 +8.6 61 +16 +18 тепло 1004.2 950.6 +12.3 0.0
Ю 1 50 км 10/0
[Ci fib]
+24.4 +14.0 52 +27 +40 жарко 1001.8 949.8
З 1 50 км 10/3 1000 м
[Cu hum Ci fib]
+29.5 +15.9 44 +33 +43 душно 999.3 948.3
С 1 50 км 10/5 600 м
[Cb cap Ci fib]
+29.3 +16.2 45 +32 +36 душно 998.1 947.2
З 1 50 км 10/8 600 м
[Cb cap Ci fib]
+26.7 +16.8 55 +30 +31 душно 999.2 947.8 +30.3
штиль 0 20 км гроза, ливневой дождь 10/10 600 м
[Cb cap]
+22.6 +13.1 55 +26 +26 жарко 1000.8 948.5
ЮВ 2 20 км {гроза, ливн. дождь} 6/3 600 м
[Cb cap Ci fib]
+19.0 +13.5 70 +21 +21 комфорт 1000.8 947.9
штиль 0 13 км 10/3 600 м
[Cb cap Ac trans Ci fib]
+16.3 +16.2 99 +16 +16 тепло 1001.7 948.4
штиль 0 11 км 10/10 600 м
[Cb cap]
+18.4 +17.5 94 +19 +19 тепло 1001.4 948.5 +16.0 0.0
С 1 10 км {ливн. дождь} 10/8 600 м
[Cb cap Ac und]
+20.3 +19.2 93 +25 +26 комфорт 1001.0 948.5
СЗ 1 50 км {ливн. дождь} 10/8 600 м
[Cb cap Ac und]
+21.6 +18.2 81 +26 +27 душно 999.5 947.3
ЮВ 4 20 км 10/5 600 м
[Cb cap Ac trans Cs]
+18.5 +14.6 78 +19 +20 тепло 999.0 946.1
ЮВ 3 {10} 20 км 10/0
[Ac trans Cs]
+17.3 +15.1 87 +17 +18 тепло 999.3 946.3 +25.0 0.3
ЮВ 2 20 км 4/0
[Ac trans Cs]
+13.8 +12.3 91 +13 +13 тепло 1000.4 946.6
ЮВ 2 20 км 6/0
[Ac trans Ci fib]
+12.2 +11.4 95 +11 +11 тепло 1000.1 946.1
ЮВ 2 50 км 4/0
[Ac trans Ci fib]
+12.0 +11.1 94 +11 +11 тепло 1000.0 945.9
Ю 1 50 км 10/0
[Ac trans Cs]
+15.8 +11.9 78 +17 +19 тепло 999.8 946.4 +11.6
Ю 1 50 км 10/0
[Ac trans Cc]
+21.2 +14.2 64 +24 +34 комфорт 998.7 946.3
ЮВ 4 50 км 10/3 600 м
[Cb cap Ac trans Cc]
+22.6 +14.7 61 +26 +30 жарко 997.6 945.6
ЮВ 3 50 км 10/4 600 м
[Cb cap Ac trans Ci fib]
+21.5 +14.3 64 +24 +26 комфорт 997.0 944.8
ЮВ 2 50 км гроза без осадков 10/10 600 м
[Cb cap]
+18.4 +12.5 68 +19 +19 тепло 998.7 945.8 +23.7
штиль 0 20 км {гроза} 10/10 600 м
[Cb cap]
+17.9 +13.6 76 +18 +18 тепло 999.7 946.7
З 5-10 {13} 4600 м слаб. ливневой дождь {гроза} 10/10 600 м
[Cb cap]
+13.3 +13.3 100 +11 +11 тепло 1002.8 948.8
СЗ 4 {13} 10 км слаб. ливневой дождь 10/10 300 м
[Cb cap]
+11.7 +11.7 100 +9 +9 тепло 1005.3 950.8
СЗ 4 {12} 2900 м ливневой дождь 10/10 300 м
[Cb cap]
+10.5 +10.5 100 +8 +8 холодно 1008.9 954.0 +10.5 10
СЗ 4-10 {12} 50 км слаб. ливневой дождь 10/10 600 м
[Cb cap]
+10.8 +9.9 94 +8 +8 очень холодно 1010.8 955.9 +10.1
СЗ 3 {12} 11 км слаб. ливневой дождь 10/10 600 м
[Cb cap]
+7.7 +7.7 100 +5 +5 очень холодно 1013.2 957.5
З 1 20 км слаб. ливневой дождь 10/10 600 м
[Cb cap]
+9.1 +8.3 95 +8 +8 очень холодно 1012.6 957.2
СЗ 1 50 км в посл. час ливневой дождь 10/10 600 м
[Cb cap]
+8.4 +8.4 100 +7 +7 очень холодно 1013.6 958.0 +10.9 5
штиль 0 19 км 10/10 600 м
[Cb cap]
+8.4 +8.4 100 +7 +7 очень холодно 1013.2 957.6
В 1 8000 м слаб. ливневой дождь 10/10 600 м
[Cb cap]
+8.7 +8.7 100 +8 +8 прохладно 1013.0 957.5
штиль 0 6000 м слаб. ливневой дождь 10/10 600 м
[Cb cap]
+8.1 +8.1 100 +7 +7 холодно 1013.2 957.6
Ю 1 10 км слаб. ливневой дождь 10/10 600 м
[Cb cap]
+8.9 +8.9 100 +8 +8 прохладно 1014.6 959.1 +8.0 3
штиль 0 20 км слаб. ливневой дождь 10/10 600 м
[Cb cap]
+10.2 +9.4 95 +9 +9 очень холодно 1015.0 959.7
С 1 19 км слаб. ливневой дождь 10/10 600 м
[Cb cap]
+13.1 +8.1 72 +13 +13 очень холодно 1013.7 959.0
СЗ 2 50 км {ливн. дождь} 10/8 600 м
[Cb cap Ac und]
+15.5 +8.7 64 +15 +16 холодно 1012.8 958.6
В 2 20 км {ливн. дождь} 10/3 600 м
[Cb cap Ac trans Cs]
+15.3 +9.7 69 +15 +15 прохладно 1013.3 959.1 +16.9 1
штиль 0 20 км 4/0
[Ci fib]
+10.5 +10.0 97 +10 +10 холодно 1014.8 959.6
штиль 0 10 км 4/0
[Ci fib]
+8.0 +8.0 100 +7 +7 холодно 1015.9 960.1
штиль 0 20 км 10/0
[Ac trans Cs]
+6.6 +6.6 100 +5 +5 очень холодно 1016.4 960.2
СЗ 1 20 км 10/0
[Ac trans Cs]
+8.8 +8.8 100 +8 +11 холодно 1016.7 961.0 +6.4
З 1 50 км 6/3 600 м
[Cb cap Ci fib]
+16.9 +8.4 57 +18 +28 тепло 1015.0 960.9
Ю 1 50 км 3/0
[Ac trans Ci fib]
+20.0 +6.5 41 +22 +38 комфорт 1012.9 959.5
Ю 2 50 км 3/0
[Ci fib]
+21.9 +7.5 39 +23 +30 комфорт 1011.5 958.5
ЮВ 2 50 км 4/0
[Ci fib]
+18.0 +8.2 53 +19 +19 по сезону 1012.4 958.6 +22.2
ЮВ 3 20 км 3/0
[Ci fib]
+13.8 +8.5 70 +13 +13 прохладно 1013.1 958.6
ЮВ 2 20 км 10/0
[Ac und]
+11.4 +9.8 90 +10 +10 по сезону 1013.3 958.3
ЮВ 2 50 км 4/0
[Ac trans Ci fib]
+9.2 +9.2 100 +7 +7 холодно 1013.0 957.6
ЮВ 3 50 км 8/0
[Ac trans Ci fib]
+12.5 +9.9 84 +11 +14 по сезону 1012.2 957.5 +9.0
ЮВ 2 50 км 8/0
[Ac trans Ci fib]
+16.7 +11.7 72 +17 +26 по сезону 1011.2 957.3
ЮВ 3 50 км 3/0
[Ci fib]
+22.6 +11.0 48 +25 +38 комфорт 1008.7 956.0
Местоположение метеостанции Иркутск (Иркутская область, Россия): широта 52.27 долгота 104.30 высота над уровнем моря 469 м.
В архиве по умолчанию представлена погода в Иркутске за последнюю неделю. Архивные данные за месяц целиком и за предыдущие месяцы, начиная с января 2011 года, Вы можете получить, выбрав интересующий диапазон дат из раскрывающегося списка и нажав кнопку "Найти!".
*Определитесь, кто Вы:
Внимание! Время в таблицах - всемирное. Для получения местного времени необходимо прибавить поправку, которая равна 8 ч.
Некоторые строки с данными для отдельных станций могут быть выделены курсивом. Это означает, что фактические данные отсутствуют по различным причинам, а приведенные значения являются расчетными модельными данными для данного пункта наблюдений.
Смотрите также архив погоды в соседних городах и на ближайших метеорологических станциях:
Партнеры нашего сайта:      
Пояснения к столбцам:
  • Ветер - указаны скорость ветра в м/с - средняя за 10 мин, порывы в срок и между сроками (в фигурных скобках) и направление, откуда дует ветер: С - северный,
  • СВ - северо-восточный, В - восточный, ЮВ - юго-восточный, Ю - южный, ЮЗ - юго-западный, З - западный, СЗ - северо-западный.
  • Видимость - горизонтальная дальность видимости в метрах или километрах. При видимости от 1 до 10 км при отсутствии осадков обычно наблюдается дымка, при ухудшении видимости до 1 км и менее - туман. В сухую погоду видимость может ухудшаться дымом, пылью или мглою.
  • Явления - указаны атмосферные явления, наблюдавшиеся в срок или в последний час перед сроком; фигурными скобками обозначены явления, наблюдавшиеся между сроками (за 1-3 часа до срока); квадратными скобками обозначены град или гололедные отложения с указанием их диаметра в мм.
  • Облачность - указаны через наклонную черту общая и нижняя облачность в баллах и высота нижней границы облаков в метрах; квадратными скобками обозначены формы облаков: Ci - перистые, Cs - перисто-слоистые, Cc - перисто-кучевые, Ac - высококучевые, As - высокослоистые, Sc - слоисто-кучевые, Ns - слоисто-дождевые, Cu - кучевые, Cb - кучево-дождевые. Подробнее классификацию облаков см. в Атласе облаков (PDF).
  • T - Температура воздуха - температура, измеренная на высоте 2 м над землей.
  • Td - Температура точки росы - температура, при понижении до которой содержащийся в воздухе водяной пар достигнет насыщения.
  • f - Относительная влажность воздуха - влажноcть воздуха, измеренная на высоте 2 м над землей.
  • Te - Эффективная температура - температура, которую ощущает одетый по сезону человек в тени. Характеристика душности погоды. При расчете учитывается влияние влажности воздуха и скорости ветра на теплоощущения человека.
  • Tes - Эффективная температура на солнце - температура, которую ощущает человек, с поправкой на солнечный нагрев. Характеристика знойности погоды. Зависит от высоты солнца над горизонтом, облачности и скорости ветра. Ночью, в пасмурную погоду, а также при ветре 12 м/с и более поправка равна нулю.
  • P - Атмосферное давление - приведенное к уровню моря атмосферное давление.
  • Po - Атмосферное давление - измеренное на уровне метеостанции атмосферное давление.
  • Tmin - Минимальная температура - минимум температуры воздуха на высоте 2 м над землей.
  • Tmax - Максимальная температура - максимум температуры воздуха на высоте 2 м над землей.
  • R - Количество осадков - Количество выпавших осадков за период времени, мм. При наведении курсора мыши на число - период времени, за который выпало указанное количество осадков.
  • R24 - Количество осадков - Количество выпавших осадков за 24 часа, мм.
  • S - Снежный покров - Высота снежного покрова, см. При наведении курсора мыши на число - состояние снежного покрова и степень покрытия местности в баллах.